アトラス彗星

C/2022 L2 ( ATLAS )

English version
Home page
Updated on February 10, 2024

---------------------------------------------------------------------

・ プロフィール

発見日 2022年6月10日
発見光度 18.4等
発見者 Asteroid Terrestrial-Impact Last Alert System (ATLAS) search program

・ 写真集

・ 軌道要素

Epoch 2023 Sept. 13.0 TT = JDT 2460200.5
T 2024 Mar. 12.29241 TT                                 Rudenko
q   2.6925661            (2000.0)            P               Q
z  -0.0005532      Peri.  199.92980     -0.86472402     -0.11279230
 +/-0.0000007      Node    39.24126     -0.28726369     +0.91040260
e   1.0014895      Incl.  129.31474     -0.41198537     -0.39805151
>From 2251 observations 2022 May 20-2023 Sept. 23, mean residual 0".5.

・ 星図

・ 光度変化

        m1 = 8.0 + 5 logΔ + 7.5 log r

---------------------------------------------------------------------

軌道要素はM.P.E.C. 2023-S260に掲載されたものです。
星図はステラナビゲータ Ver.10 (アストロアーツ) で作成したものです。
光度グラフはComet for Windowsで作成したものです。

---------------------------------------------------------------------

Copyright(C) Seiichi Yoshida (comet@aerith.net). All rights reserved.